Topeka, KS

12:08 AM CDT on September 30, 2016 (GMT -0500)
Billard Municipal

Weather History for KTOP - September, 2013

Change the Weather History Date:

Saturday, September 21, 2013

  Actual Average Record
Temperature  
Mean Temperature 64 °F 66 °F  
Max Temperature 80 °F 78 °F 98 °F (1956)
Min Temperature 48 °F 54 °F 36 °F (1999)
Degree Days  
Heating Degree Days 1 3  
Month to date heating degree days 5 27  
Since 1 July heating degree days 5 29  
Cooling Degree Days 0 4  
Month to date cooling degree days 225 137  
Year to date cooling degree days 1519 1365  
Growing Degree Days 14 (Base 50)    
Moisture  
Dew Point 49 °F    
Average Humidity 65    
Maximum Humidity 93    
Minimum Humidity 36    
Precipitation  
Precipitation 0.00 in 0.12 in 2.29 in (1970)
Month to date precipitation 3.09 2.57  
Year to date precipitation 27.56 29.14  
Snow  
Snow 0.00 in 0.00 in T in (1932)
Month to date snowfall 0.0 0.0  
Year to date snowfall 24.2 11.3  
Since 1 July snowfall 0.0 0.0  
Snow Depth 0.00 in    
Sea Level Pressure  
Sea Level Pressure 29.99 in    
Wind  
Wind Speed 2 mph (SE)    
Max Wind Speed 10 mph    
Max Gust Speed 12 mph    
Visibility 8 miles    
Events Fog    
T = Trace of Precipitation, MM = Missing Value Source: NWS Daily Summary

Daily Weather History Graph

Daily Weather History Graph

Search for Another Location

Airport or City:

Trip Planner

Search our weather history database for the weather conditions in past years. The results will help you decide how hot, cold, wet, or windy it might be!

Date:

Astronomy

Sep. 21, 2013 Rise Set
Actual Time 7:09 AM CDT 7:20 PM CDT
Civil Twilight 6:42 AM CDT 7:47 PM CDT
Nautical Twilight 6:11 AM CDT 8:18 PM CDT
Astronomical Twilight 5:39 AM CDT 8:50 PM CDT
Moon 8:33 PM CDT (9/21) 9:27 AM CDT (9/21)
Length of Visible Light 13h 04m
Length of Day
12h 11m
Waning Gibbous, 94% of the Moon is Illuminated
Sep 21
Waning Gibbous
Sep 26
Last Quarter
Oct 4
New
Oct 11
First Quarter
Oct 18
Full

Hourly Weather History & Observations

Time (CDT) Temp. Dew Point Humidity Pressure Visibility Wind Dir Wind Speed Gust Speed Precip Events Conditions
12:53 AM 53.1 °F 50.0 °F 89% 30.01 in 10.0 mi Calm Calm - N/A   Clear
1:53 AM 52.0 °F 48.9 °F 89% 30.01 in 10.0 mi Calm Calm - N/A   Clear
2:53 AM 52.0 °F 48.0 °F 86% 30.01 in 10.0 mi Calm Calm - N/A   Clear
3:53 AM 50.0 °F 48.0 °F 93% 30.01 in 4.0 mi Calm Calm - N/A   Clear
4:53 AM 51.1 °F 48.0 °F 89% 30.01 in 10.0 mi Calm Calm - N/A   Clear
5:30 AM 50.0 °F 46.9 °F 89% 30.02 in 1.2 mi Calm Calm - N/A   Clear
5:34 AM 48.9 °F 46.9 °F 93% 30.02 in 0.5 mi Calm Calm - N/A Fog Fog
5:49 AM 48.2 °F 46.4 °F 93% 30.02 in 1.0 mi Calm Calm - N/A   Clear
5:53 AM 50.0 °F 46.9 °F 89% 30.02 in 2.0 mi Calm Calm - N/A   Clear
6:00 AM 50.0 °F 46.9 °F 89% 30.03 in 5.0 mi Calm Calm - N/A   Clear
6:45 AM 50.0 °F 46.9 °F 89% 30.04 in 1.5 mi Calm Calm - N/A   Clear
6:50 AM 50.0 °F 46.4 °F 87% 30.04 in 0.5 mi Calm Calm - N/A Fog Fog
6:53 AM 48.9 °F 46.9 °F 93% 30.04 in 0.5 mi Calm Calm - N/A Fog Fog
7:04 AM 48.0 °F 46.0 °F 93% 30.04 in 10.0 mi Calm Calm - N/A   Clear
7:53 AM 51.1 °F 48.9 °F 92% 30.05 in 10.0 mi Calm Calm - N/A   Clear
8:53 AM 57.0 °F 51.1 °F 81% 30.05 in 10.0 mi Calm Calm - N/A   Clear
9:53 AM 61.0 °F 52.0 °F 72% 30.06 in 10.0 mi Calm Calm - N/A   Clear
10:53 AM 66.9 °F 51.1 °F 57% 30.05 in 10.0 mi Calm Calm - N/A   Clear
11:53 AM 72.0 °F 50.0 °F 46% 30.03 in 10.0 mi Variable 5.8 mph - N/A   Clear
12:53 PM 73.0 °F 46.9 °F 39% 30.01 in 10.0 mi Variable 3.5 mph - N/A   Clear
1:53 PM 75.0 °F 48.0 °F 38% 29.99 in 10.0 mi Variable 3.5 mph - N/A   Clear
2:53 PM 77.0 °F 48.9 °F 37% 29.96 in 10.0 mi Calm Calm - N/A   Clear
3:53 PM 79.0 °F 50.0 °F 36% 29.94 in 10.0 mi South 6.9 mph - N/A   Clear
4:53 PM 79.0 °F 50.0 °F 36% 29.92 in 10.0 mi Calm Calm - N/A   Clear
5:53 PM 77.0 °F 52.0 °F 42% 29.91 in 10.0 mi SSE 8.1 mph - N/A   Clear
6:53 PM 72.0 °F 54.0 °F 53% 29.90 in 10.0 mi ESE 5.8 mph - N/A   Clear
7:53 PM 66.9 °F 54.0 °F 63% 29.90 in 10.0 mi ESE 6.9 mph - N/A   Clear
8:53 PM 64.9 °F 54.0 °F 68% 29.91 in 10.0 mi Calm Calm - N/A   Clear
9:53 PM 63.0 °F 54.0 °F 72% 29.93 in 10.0 mi Calm Calm - N/A   Clear
10:53 PM 61.0 °F 53.1 °F 75% 29.93 in 10.0 mi ESE 3.5 mph - N/A   Clear
11:53 PM 61.0 °F 51.1 °F 70% 29.92 in 10.0 mi East 4.6 mph - N/A   Clear